Saint Bonnet de Bellac- Haute Vienne - France
Donnes mto: samedi, 23/06/2012
Date Horaire Temp. E. Hum. E. P.atmo. Pluie Vent Direction Direction Ensoleilleme Solaire P. de rose Temp au vent Rafales
23/06/2012 07:30 8,8 C 90 % 1024,9 hPa 0,0 mm 0,0 km/h (0 Bft) E-SE 112 0 min 0 W/m 7,3 C 8,8 C 0,0 km/h (0 Bft)
23/06/2012 07:40 9,1 C 91 % 1024,9 hPa 0,0 mm 0,0 km/h (0 Bft) E-SE 112 0 min 0 W/m 7,7 C 9,1 C 3,2 km/h (1 Bft)
23/06/2012 07:50 9,6 C 91 % 1024,9 hPa 0,0 mm 0,0 km/h (0 Bft) E-SE 112 0 min 0 W/m 8,2 C 9,6 C 0,0 km/h (0 Bft)
23/06/2012 08:00 10,0 C 91 % 1025,0 hPa 0,0 mm 0,0 km/h (0 Bft) E-SE 112 0 min 0 W/m 8,6 C 10,0 C 0,0 km/h (0 Bft)
23/06/2012 08:10 10,5 C 92 % 1025,1 hPa 0,0 mm 0,0 km/h (0 Bft) E 90 0 min 0 W/m 9,3 C 10,5 C 0,0 km/h (0 Bft)
23/06/2012 08:20 11,1 C 92 % 1025,2 hPa 0,0 mm 0,0 km/h (0 Bft) E-SE 112 0 min 0 W/m 9,8 C 11,1 C 0,0 km/h (0 Bft)
23/06/2012 08:30 11,8 C 92 % 1025,0 hPa 0,0 mm 0,0 km/h (0 Bft) E 90 0 min 0 W/m 10,5 C 11,8 C 0,0 km/h (0 Bft)
23/06/2012 08:40 12,5 C 92 % 1024,9 hPa 0,0 mm 0,0 km/h (0 Bft) E 90 0 min 0 W/m 11,2 C 12,5 C 0,0 km/h (0 Bft)
23/06/2012 08:50 13,1 C 92 % 1025,1 hPa 0,0 mm 0,0 km/h (0 Bft) E 90 0 min 0 W/m 11,8 C 13,1 C 0,0 km/h (0 Bft)
23/06/2012 09:00 13,8 C 91 % 1025,0 hPa 0,0 mm 0,7 km/h (0 Bft) E 90 0 min 0 W/m 12,4 C 13,8 C 4,0 km/h (1 Bft)
23/06/2012 09:10 14,3 C 89 % 1024,9 hPa 0,0 mm 2,2 km/h (1 Bft) E-SE 112 0 min 0 W/m 12,5 C 14,3 C 4,0 km/h (1 Bft)
23/06/2012 09:20 14,8 C 88 % 1025,0 hPa 0,0 mm 1,8 km/h (1 Bft) N-NE 22 0 min 0 W/m 12,8 C 14,8 C 4,3 km/h (1 Bft)
23/06/2012 09:30 15,2 C 85 % 1025,0 hPa 0,0 mm 3,6 km/h (1 Bft) N-NE 22 0 min 0 W/m 12,7 C 15,2 C 6,5 km/h (2 Bft)
23/06/2012 09:40 15,7 C 82 % 1025,1 hPa 0,0 mm 1,8 km/h (1 Bft) NE 45 0 min 0 W/m 12,6 C 15,7 C 5,8 km/h (2 Bft)
23/06/2012 09:50 16,1 C 80 % 1025,1 hPa 0,0 mm 3,2 km/h (1 Bft) E-NE 67 0 min 0 W/m 12,6 C 16,1 C 6,1 km/h (2 Bft)
23/06/2012 10:00 16,6 C 78 % 1025,1 hPa 0,0 mm 2,5 km/h (1 Bft) E-SE 112 0 min 0 W/m 12,7 C 16,6 C 4,3 km/h (1 Bft)
23/06/2012 10:10 16,9 C 74 % 1025,2 hPa 0,0 mm 0,0 km/h (0 Bft) O 270 0 min 0 W/m 12,2 C 16,9 C 0,0 km/h (0 Bft)
23/06/2012 10:20 17,3 C 74 % 1025,1 hPa 0,0 mm 0,7 km/h (0 Bft) O 270 0 min 0 W/m 12,6 C 17,3 C 4,0 km/h (1 Bft)
23/06/2012 10:30 18,0 C 74 % 1025,1 hPa 0,0 mm 1,4 km/h (1 Bft) N 360 0 min 0 W/m 13,3 C 18,0 C 4,0 km/h (1 Bft)
23/06/2012 10:40 18,8 C 69 % 1025,1 hPa 0,0 mm 0,4 km/h (0 Bft) O 270 0 min 0 W/m 13,0 C 18,8 C 4,0 km/h (1 Bft)
23/06/2012 10:50 18,9 C 70 % 1025,1 hPa 0,0 mm 2,2 km/h (1 Bft) NO 315 0 min 0 W/m 13,3 C 18,9 C 4,3 km/h (1 Bft)
23/06/2012 11:00 18,6 C 68 % 1025,0 hPa 0,0 mm 2,9 km/h (1 Bft) N-NO 337 0 min 0 W/m 12,6 C 18,6 C 3,2 km/h (1 Bft)
23/06/2012 11:10 18,3 C 68 % 1025,0 hPa 0,0 mm 0,0 km/h (0 Bft) NO 315 0 min 0 W/m 12,3 C 18,3 C 0,0 km/h (0 Bft)
23/06/2012 11:20 17,9 C 67 % 1024,9 hPa 0,0 mm 0,0 km/h (0 Bft) NO 315 0 min 0 W/m 11,7 C 17,9 C 0,0 km/h (0 Bft)
23/06/2012 11:30 18,1 C 67 % 1024,8 hPa 0,0 mm 2,2 km/h (1 Bft) N-NE 22 0 min 0 W/m 11,9 C 18,1 C 4,0 km/h (1 Bft)
23/06/2012 11:40 18,8 C 64 % 1024,9 hPa 0,0 mm 0,0 km/h (0 Bft) E 90 0 min 0 W/m 11,8 C 18,8 C 0,0 km/h (0 Bft)
23/06/2012 11:50 18,9 C 63 % 1024,9 hPa 0,0 mm 0,0 km/h (0 Bft) N 360 0 min 0 W/m 11,7 C 18,9 C 0,0 km/h (0 Bft)
23/06/2012 12:00 19,1 C 63 % 1024,8 hPa 0,0 mm 0,0 km/h (0 Bft) E-NE 67 0 min 0 W/m 11,9 C 19,1 C 0,0 km/h (0 Bft)
23/06/2012 12:10 18,9 C 62 % 1024,8 hPa 0,0 mm 0,7 km/h (0 Bft) N-NE 22 0 min 0 W/m 11,5 C 18,9 C 4,3 km/h (1 Bft)
23/06/2012 12:20 19,1 C 59 % 1024,9 hPa 0,0 mm 0,4 km/h (0 Bft) O-NO 292 0 min 0 W/m 10,9 C 19,1 C 0,4 km/h (0 Bft)
23/06/2012 12:30 19,6 C 58 % 1024,8 hPa 0,0 mm 3,6 km/h (1 Bft) N-NE 22 0 min 0 W/m 11,1 C 19,6 C 7,9 km/h (2 Bft)
23/06/2012 12:40 20,1 C 55 % 1024,9 hPa 0,0 mm 0,0 km/h (0 Bft) S-SE 157 0 min 0 W/m 10,8 C 20,1 C 0,0 km/h (0 Bft)
23/06/2012 12:50 20,6 C 56 % 1024,8 hPa 0,0 mm 4,0 km/h (1 Bft) E-NE 67 0 min 0 W/m 11,5 C 20,6 C 6,1 km/h (2 Bft)
23/06/2012 13:00 21,1 C 53 % 1024,8 hPa 0,0 mm 4,0 km/h (1 Bft) E-NE 67 0 min 0 W/m 11,1 C 21,1 C 6,8 km/h (2 Bft)
23/06/2012 13:10 21,2 C 53 % 1024,6 hPa 0,0 mm 1,4 km/h (1 Bft) S 180 0 min 0 W/m 11,2 C 21,2 C 3,6 km/h (1 Bft)
23/06/2012 13:20 21,3 C 51 % 1024,6 hPa 0,0 mm 3,2 km/h (1 Bft) E-SE 112 0 min 0 W/m 10,7 C 21,3 C 3,6 km/h (1 Bft)
23/06/2012 13:30 21,7 C 53 % 1024,5 hPa 0,0 mm 0,7 km/h (0 Bft) O-NO 292 0 min 0 W/m 11,7 C 21,7 C 3,6 km/h (1 Bft)
23/06/2012 13:40 22,1 C 52 % 1024,4 hPa 0,0 mm 2,9 km/h (1 Bft) N-NO 337 0 min 0 W/m 11,8 C 22,1 C 6,8 km/h (2 Bft)
23/06/2012 13:50 22,3 C 52 % 1024,4 hPa 0,0 mm 3,2 km/h (1 Bft) O 270 0 min 0 W/m 12,0 C 22,3 C 6,1 km/h (2 Bft)
23/06/2012 14:00 22,1 C 48 % 1024,3 hPa 0,0 mm 0,7 km/h (0 Bft) S 180 0 min 0 W/m 10,6 C 22,1 C 3,6 km/h (1 Bft)
23/06/2012 14:10 21,8 C 52 % 1024,3 hPa 0,0 mm 0,0 km/h (0 Bft) N-NO 337 0 min 0 W/m 11,5 C 21,8 C 3,2 km/h (1 Bft)
23/06/2012 14:20 22,3 C 51 % 1024,2 hPa 0,0 mm 0,0 km/h (0 Bft) E-NE 67 0 min 0 W/m 11,7 C 22,3 C 4,0 km/h (1 Bft)
23/06/2012 14:30 22,0 C 50 % 1024,2 hPa 0,0 mm 0,0 km/h (0 Bft) S-SO 202 0 min 0 W/m 11,1 C 22,0 C 0,0 km/h (0 Bft)
23/06/2012 14:40 22,3 C 50 % 1024,1 hPa 0,0 mm 1,4 km/h (1 Bft) N-NO 337 0 min 0 W/m 11,4 C 22,3 C 3,6 km/h (1 Bft)
23/06/2012 14:50 22,4 C 50 % 1024,1 hPa 0,0 mm 1,4 km/h (1 Bft) S-SO 202 0 min 0 W/m 11,5 C 22,4 C 4,0 km/h (1 Bft)
23/06/2012 15:00 22,4 C 51 % 1023,9 hPa 0,0 mm 3,2 km/h (1 Bft) N-NE 22 0 min 0 W/m 11,8 C 22,4 C 7,2 km/h (2 Bft)
23/06/2012 15:10 22,9 C 49 % 1024,0 hPa 0,0 mm 1,1 km/h (1 Bft) S-SO 202 0 min 0 W/m 11,6 C 22,9 C 1,1 km/h (1 Bft)
23/06/2012 15:20 22,8 C 48 % 1023,9 hPa 0,0 mm 1,8 km/h (1 Bft) SO 225 0 min 0 W/m 11,2 C 22,8 C 4,0 km/h (1 Bft)
23/06/2012 15:30 22,4 C 49 % 1023,9 hPa 0,0 mm 0,0 km/h (0 Bft) SO 225 0 min 0 W/m 11,2 C 22,4 C 0,0 km/h (0 Bft)
23/06/2012 15:40 22,6 C 50 % 1023,7 hPa 0,0 mm 3,6 km/h (1 Bft) N-NE 22 0 min 0 W/m 11,6 C 22,6 C 6,1 km/h (2 Bft)
23/06/2012 15:50 22,8 C 50 % 1023,7 hPa 0,0 mm 0,4 km/h (0 Bft) N-NE 22 0 min 0 W/m 11,8 C 22,8 C 3,6 km/h (1 Bft)
23/06/2012 16:00 23,1 C 50 % 1023,7 hPa 0,0 mm 0,0 km/h (0 Bft) O-NO 292 0 min 0 W/m 12,1 C 23,1 C 0,0 km/h (0 Bft)
23/06/2012 16:10 22,9 C 51 % 1023,7 hPa 0,0 mm 0,0 km/h (0 Bft) N 360 0 min 0 W/m 12,2 C 22,9 C 0,0 km/h (0 Bft)
23/06/2012 16:20 23,2 C 50 % 1023,7 hPa 0,0 mm 3,2 km/h (1 Bft) NO 315 0 min 0 W/m 12,2 C 23,2 C 7,6 km/h (2 Bft)
23/06/2012 16:30 23,4 C 49 % 1023,7 hPa 0,0 mm 0,4 km/h (0 Bft) N 360 0 min 0 W/m 12,1 C 23,4 C 0,4 km/h (0 Bft)
23/06/2012 16:40 23,2 C 47 % 1023,8 hPa 0,0 mm 0,0 km/h (0 Bft) NO 315 0 min 0 W/m 11,3 C 23,2 C 0,0 km/h (0 Bft)
23/06/2012 16:50 23,2 C 49 % 1023,6 hPa 0,0 mm 2,9 km/h (1 Bft) N-NO 337 0 min 0 W/m 11,9 C 23,2 C 7,9 km/h (2 Bft)
23/06/2012 17:00 23,3 C 48 % 1023,5 hPa 0,0 mm 1,1 km/h (1 Bft) SO 225 0 min 0 W/m 11,7 C 23,3 C 3,6 km/h (1 Bft)
23/06/2012 17:10 22,8 C 50 % 1023,4 hPa 0,0 mm 1,4 km/h (1 Bft) O-NO 292 0 min 0 W/m 11,8 C 22,8 C 3,2 km/h (1 Bft)
23/06/2012 17:20 22,9 C 50 % 1023,2 hPa 0,0 mm 0,0 km/h (0 Bft) O-NO 292 0 min 0 W/m 11,9 C 22,9 C 0,0 km/h (0 Bft)
23/06/2012 17:30 23,4 C 47 % 1023,1 hPa 0,0 mm 2,9 km/h (1 Bft) NO 315 0 min 0 W/m 11,4 C 23,4 C 3,6 km/h (1 Bft)
23/06/2012 17:40 23,4 C 47 % 1023,1 hPa 0,0 mm 0,0 km/h (0 Bft) NO 315 0 min 0 W/m 11,4 C 23,4 C 0,0 km/h (0 Bft)
23/06/2012 17:50 23,4 C 48 % 1023,0 hPa 0,0 mm 1,8 km/h (1 Bft) N-NE 22 0 min 0 W/m 11,8 C 23,4 C 4,0 km/h (1 Bft)
23/06/2012 18:00 23,6 C 48 % 1023,0 hPa 0,0 mm 2,5 km/h (1 Bft) E-NE 67 0 min 0 W/m 11,9 C 23,6 C 6,1 km/h (2 Bft)
23/06/2012 18:10 23,8 C 48 % 1022,8 hPa 0,0 mm 0,4 km/h (0 Bft) NE 45 0 min 0 W/m 12,1 C 23,8 C 1,4 km/h (1 Bft)
23/06/2012 18:20 23,5 C 47 % 1022,7 hPa 0,0 mm 0,7 km/h (0 Bft) N 360 0 min 0 W/m 11,5 C 23,5 C 4,0 km/h (1 Bft)
23/06/2012 18:30 23,5 C 47 % 1022,7 hPa 0,0 mm 4,0 km/h (1 Bft) N-NO 337 0 min 0 W/m 11,5 C 23,5 C 4,7 km/h (1 Bft)
23/06/2012 18:40 23,4 C 48 % 1022,7 hPa 0,0 mm 2,2 km/h (1 Bft) SE 135 0 min 0 W/m 11,8 C 23,4 C 4,0 km/h (1 Bft)
23/06/2012 18:50 23,2 C 50 % 1022,7 hPa 0,0 mm 0,0 km/h (0 Bft) N-NO 337 0 min 0 W/m 12,2 C 23,2 C 0,0 km/h (0 Bft)
23/06/2012 19:00 23,0 C 50 % 1022,7 hPa 0,0 mm 1,1 km/h (1 Bft) N-NO 337 0 min 0 W/m 12,0 C 23,0 C 1,1 km/h (1 Bft)
23/06/2012 19:10 22,9 C 50 % 1022,7 hPa 0,0 mm 0,0 km/h (0 Bft) N-NO 337 0 min 0 W/m 11,9 C 22,9 C 0,0 km/h (0 Bft)
23/06/2012 19:20 22,9 C 50 % 1022,7 hPa 0,0 mm 0,0 km/h (0 Bft) N-NO 337 0 min 0 W/m 11,9 C 22,9 C 0,0 km/h (0 Bft)
23/06/2012 19:30 22,8 C 50 % 1022,6 hPa 0,0 mm 0,0 km/h (0 Bft) N-NE 22 0 min 0 W/m 11,8 C 22,8 C 0,0 km/h (0 Bft)
23/06/2012 19:40 22,8 C 51 % 1022,4 hPa 0,0 mm 0,0 km/h (0 Bft) N-NE 22 0 min 0 W/m 12,1 C 22,8 C 0,0 km/h (0 Bft)
23/06/2012 19:50 22,8 C 50 % 1022,4 hPa 0,0 mm 1,4 km/h (1 Bft) N-NE 22 0 min 0 W/m 11,8 C 22,8 C 4,3 km/h (1 Bft)
23/06/2012 20:00 22,8 C 50 % 1022,3 hPa 0,0 mm 0,0 km/h (0 Bft) N-NE 22 0 min 0 W/m 11,8 C 22,8 C 0,0 km/h (0 Bft)
23/06/2012 20:10 22,4 C 51 % 1022,4 hPa 0,0 mm 0,0 km/h (0 Bft) N-NE 22 0 min 0 W/m 11,8 C 22,4 C 0,0 km/h (0 Bft)
23/06/2012 20:20 21,9 C 52 % 1022,5 hPa 0,0 mm 0,0 km/h (0 Bft) NO 315 0 min 0 W/m 11,6 C 21,9 C 0,0 km/h (0 Bft)
23/06/2012 20:30 21,4 C 53 % 1022,4 hPa 0,0 mm 0,0 km/h (0 Bft) N-NO 337 0 min 0 W/m 11,4 C 21,4 C 0,0 km/h (0 Bft)
23/06/2012 20:40 20,9 C 54 % 1022,4 hPa 0,0 mm 0,0 km/h (0 Bft) N 360 0 min 0 W/m 11,2 C 20,9 C 0,0 km/h (0 Bft)
23/06/2012 20:50 20,5 C 56 % 1022,4 hPa 0,0 mm 0,0 km/h (0 Bft) N-NO 337 0 min 0 W/m 11,4 C 20,5 C 0,0 km/h (0 Bft)
23/06/2012 21:00 20,0 C 57 % 1022,4 hPa 0,0 mm 0,0 km/h (0 Bft) N-NO 337 0 min 0 W/m 11,2 C 20,0 C 0,0 km/h (0 Bft)
23/06/2012 21:10 19,5 C 58 % 1022,4 hPa 0,0 mm 0,0 km/h (0 Bft) N-NO 337 0 min 0 W/m 11,0 C 19,5 C 0,0 km/h (0 Bft)
23/06/2012 21:20 19,1 C 60 % 1022,4 hPa 0,0 mm 0,0 km/h (0 Bft) N-NO 337 0 min 0 W/m 11,1 C 19,1 C 0,0 km/h (0 Bft)
23/06/2012 21:30 18,6 C 60 % 1022,3 hPa 0,0 mm 0,0 km/h (0 Bft) N-NO 337 0 min 0 W/m 10,7 C 18,6 C 0,0 km/h (0 Bft)
23/06/2012 21:40 18,1 C 61 % 1022,5 hPa 0,0 mm 0,0 km/h (0 Bft) N-NO 337 0 min 0 W/m 10,5 C 18,1 C 0,0 km/h (0 Bft)
23/06/2012 21:50 17,6 C 62 % 1022,5 hPa 0,0 mm 0,0 km/h (0 Bft) N-NO 337 0 min 0 W/m 10,2 C 17,6 C 0,0 km/h (0 Bft)
23/06/2012 22:00 17,2 C 64 % 1022,7 hPa 0,0 mm 0,0 km/h (0 Bft) N-NO 337 0 min 0 W/m 10,3 C 17,2 C 0,0 km/h (0 Bft)
23/06/2012 22:10 16,6 C 65 % 1022,6 hPa 0,0 mm 0,0 km/h (0 Bft) N-NO 337 0 min 0 W/m 10,0 C 16,6 C 0,0 km/h (0 Bft)
23/06/2012 22:20 16,2 C 66 % 1022,9 hPa 0,0 mm 0,0 km/h (0 Bft) N-NO 337 0 min 0 W/m 9,8 C 16,2 C 0,0 km/h (0 Bft)
23/06/2012 22:30 15,8 C 68 % 1022,9 hPa 0,0 mm 0,0 km/h (0 Bft) N-NO 337 0 min 0 W/m 9,9 C 15,8 C 0,0 km/h (0 Bft)
23/06/2012 22:40 15,3 C 70 % 1022,9 hPa 0,0 mm 0,0 km/h (0 Bft) N-NO 337 0 min 0 W/m 9,9 C 15,3 C 0,0 km/h (0 Bft)
23/06/2012 22:50 14,9 C 71 % 1022,7 hPa 0,0 mm 0,0 km/h (0 Bft) N-NO 337 0 min 0 W/m 9,7 C 14,9 C 0,0 km/h (0 Bft)
23/06/2012 23:00 14,6 C 72 % 1022,8 hPa 0,0 mm 0,0 km/h (0 Bft) N-NO 337 0 min 0 W/m 9,6 C 14,6 C 0,0 km/h (0 Bft)
23/06/2012 23:10 14,3 C 72 % 1022,7 hPa 0,0 mm 0,0 km/h (0 Bft) N-NO 337 0 min 0 W/m 9,3 C 14,3 C 0,0 km/h (0 Bft)
23/06/2012 23:20 14,1 C 73 % 1022,6 hPa 0,0 mm 0,0 km/h (0 Bft) N-NO 337 0 min 0 W/m 9,3 C 14,1 C 0,0 km/h (0 Bft)
23/06/2012 23:30 13,8 C 75 % 1022,7 hPa 0,0 mm 0,0 km/h (0 Bft) S-SO 202 0 min 0 W/m 9,4 C 13,8 C 0,0 km/h (0 Bft)
23/06/2012 23:40 13,6 C 76 % 1022,9 hPa 0,0 mm 0,0 km/h (0 Bft) S-SO 202 0 min 0 W/m 9,4 C 13,6 C 0,0 km/h (0 Bft)
23/06/2012 23:50 13,3 C 77 % 1022,8 hPa 0,0 mm 0,0 km/h (0 Bft) S-SO 202 0 min 0 W/m 9,4 C 13,3 C 0,0 km/h (0 Bft)
_ Min-Heure 07:30 18:30 21:30 - 23:50 - - - - 07:30 07:30 23:50
Minimum _ 8,8 C 47 % 1022,3 hPa - 0,0 km/h (0 Bft) - - - - 7,3 C 8,8 C 0,0 km/h (0 Bft)
_ Max-Heure 18:10 08:50 10:10 23:50 18:30 - - 23:50 23:50 10:50 18:10 16:50
Maximum _ 23,8 C 92 % 1025,2 hPa 0,0 mm 4,0 km/h
N-NO (1 Bft)
- - 0 min 0 W/m 13,3 C 23,8 C 7,9 km/h
N-NO (2 Bft)
Moyenne _ 18,1 C 65 % 1023,9 hPa #0,0 mm 0,8 km/h (0 Bft) N-NO - #0 min. 0 W/m 10,9 C 18,1 C 1,9 km/h (1 Bft)
Saint Bonnet de Bellac- Haute Vienne - France